When you browse on this site, cookies collect data to enhance your experience and personalize the content and advertising you see.
Visit our Privacy Policy to learn more. By continuing to use the site, you agree to this use of cookies and data.
  • In United Kingdom
  • List of Countries
  • For 7 days
  • Water Temperature
  • Satellite Maps
  • Weather Map
  • Weather Widgets
  • user-avatar
    Login

    Hourly Weather Or Yehuda

    Today, 22 May, Wednesday

    Time Temperature Precipitation Wind Pressure Humidity
    00:00 +27°C° 0 mm 2 mps 759 mmHg 38%
    01:00 +27°C° 0 mm 2 mps 759 mmHg 37%
    02:00 +26°C° 0 mm 2 mps 759 mmHg 42%
    03:00 +26°C° 0 mm 2 mps 759 mmHg 41%
    04:00 +26°C° 0 mm 2 mps 759 mmHg 41%
    05:00 +26°C° 0 mm 1 mps 759 mmHg 40%
    06:00 +28°C° 0 mm 1 mps 759 mmHg 35%
    07:00 +30°C° 0 mm 1 mps 759 mmHg 29%
    08:00 +31°C° 0 mm 0 mps 759 mmHg 24%
    09:00 +34°C° 0 mm 1 mps 759 mmHg 23%
    10:00 +36°C° 0 mm 2 mps 759 mmHg 21%
    11:00 +37°C° 0 mm 3 mps 759 mmHg 20%
    12:00 +37°C° 0 mm 4 mps 759 mmHg 20%
    13:00 +38°C° 0 mm 4 mps 758 mmHg 21%
    14:00 +39°C° 0 mm 5 mps 758 mmHg 21%
    15:00 +37°C° 0 mm 5 mps 758 mmHg 22%
    16:00 +36°C° 0 mm 5 mps 758 mmHg 24%
    17:00 +35°C° 0 mm 5 mps 758 mmHg 25%
    18:00 +34°C° 0 mm 4 mps 758 mmHg 26%
    19:00 +33°C° 0 mm 4 mps 758 mmHg 28%
    20:00 +31°C° 0 mm 3 mps 758 mmHg 29%
    21:00 +31°C° 0 mm 3 mps 758 mmHg 28%
    22:00 +31°C° 0 mm 3 mps 758 mmHg 26%
    23:00 +31°C° 0 mm 2 mps 758 mmHg 24%

    Tomorrow, 23 May, Thursday

    Time Temperature Precipitation Wind Pressure Humidity
    00:00 +31°C° 0 mm 3 mps 758 mmHg 23%
    01:00 +31°C° 0 mm 3 mps 758 mmHg 21%
    02:00 +31°C° 0 mm 3 mps 757 mmHg 20%
    03:00 +31°C° 0 mm 3 mps 757 mmHg 19%
    04:00 +31°C° 0 mm 3 mps 757 mmHg 18%
    05:00 +32°C° 0 mm 4 mps 757 mmHg 17%
    06:00 +34°C° 0 mm 3 mps 757 mmHg 17%
    07:00 +36°C° 0 mm 3 mps 757 mmHg 16%
    08:00 +38°C° 0 mm 3 mps 757 mmHg 15%
    09:00 +39°C° 0 mm 2 mps 757 mmHg 15%
    10:00 +41°C° 0 mm 2 mps 757 mmHg 14%
    11:00 +42°C° 0 mm 2 mps 757 mmHg 14%
    12:00 +42°C° 0 mm 2 mps 756 mmHg 13%
    13:00 +42°C° 0 mm 2 mps 756 mmHg 13%
    14:00 +43°C° 0 mm 2 mps 755 mmHg 12%
    15:00 +43°C° 0 mm 3 mps 755 mmHg 15%
    16:00 +41°C° 0 mm 4 mps 754 mmHg 17%
    17:00 +40°C° 0 mm 5 mps 754 mmHg 19%
    18:00 +38°C° 0 mm 4 mps 754 mmHg 20%
    19:00 +37°C° 0 mm 4 mps 754 mmHg 20%
    20:00 +36°C° 0 mm 3 mps 754 mmHg 21%
    21:00 +36°C° 0 mm 4 mps 754 mmHg 19%
    22:00 +36°C° 0 mm 4 mps 754 mmHg 16%
    23:00 +37°C° 0 mm 5 mps 754 mmHg 14%

    Day after tomorrow, 24 May, Friday

    Time Temperature Precipitation Wind Pressure Humidity
    00:00 +36°C° 0 mm 5 mps 754 mmHg 13%
    01:00 +36°C° 0 mm 5 mps 753 mmHg 13%
    02:00 +36°C° 0 mm 6 mps 753 mmHg 13%
    03:00 +36°C° 0 mm 5 mps 753 mmHg 14%
    04:00 +35°C° 0 mm 4 mps 753 mmHg 15%
    05:00 +35°C° 0 mm 4 mps 753 mmHg 16%
    06:00 +37°C° 0 mm 4 mps 753 mmHg 15%
    07:00 +39°C° 0 mm 3 mps 753 mmHg 15%
    08:00 +42°C° 0 mm 3 mps 754 mmHg 14%
    09:00 +43°C° 0 mm 4 mps 753 mmHg 13%
    10:00 +44°C° 0 mm 4 mps 753 mmHg 12%
    11:00 +46°C° 0 mm 5 mps 753 mmHg 11%
    12:00 +46°C° 0 mm 5 mps 753 mmHg 12%
    13:00 +46°C° 0 mm 5 mps 752 mmHg 12%
    14:00 +47°C° 0 mm 5 mps 752 mmHg 12%
    15:00 +44°C° 0 mm 4 mps 752 mmHg 14%
    16:00 +42°C° 0 mm 4 mps 752 mmHg 16%
    17:00 +41°C° 0 mm 4 mps 751 mmHg 19%
    18:00 +39°C° 0 mm 3 mps 752 mmHg 21%
    19:00 +37°C° 0 mm 2 mps 752 mmHg 23%
    20:00 +35°C° 0 mm 1 mps 753 mmHg 25%
    21:00 +35°C° 0 mm 2 mps 753 mmHg 25%
    22:00 +35°C° 0 mm 2 mps 753 mmHg 26%
    23:00 +34°C° 0 mm 2 mps 754 mmHg 27%

    25 May, Saturday

    Time Temperature Precipitation Wind Pressure Humidity
    00:00 +32°C° 0 mm 2 mps 754 mmHg 33%
    01:00 +30°C° 0 mm 1 mps 754 mmHg 40%
    02:00 +29°C° 0 mm 1 mps 754 mmHg 46%
    03:00 +28°C° 0 mm 1 mps 754 mmHg 50%
    04:00 +28°C° 0 mm 2 mps 754 mmHg 53%
    05:00 +27°C° 0 mm 2 mps 754 mmHg 57%
    06:00 +28°C° 0 mm 2 mps 755 mmHg 55%
    07:00 +28°C° 0 mm 3 mps 755 mmHg 52%
    08:00 +29°C° 0 mm 3 mps 756 mmHg 50%
    09:00 +30°C° 0 mm 3 mps 756 mmHg 48%
    10:00 +32°C° 0 mm 4 mps 756 mmHg 45%
    11:00 +33°C° 0 mm 4 mps 756 mmHg 43%
    12:00 +33°C° 0 mm 4 mps 756 mmHg 42%
    13:00 +34°C° 0 mm 5 mps 756 mmHg 40%
    14:00 +34°C° 0 mm 5 mps 755 mmHg 39%
    15:00 +33°C° 0 mm 5 mps 755 mmHg 43%
    16:00 +30°C° 0 mm 5 mps 755 mmHg 46%
    17:00 +29°C° 0 mm 5 mps 755 mmHg 50%
    18:00 +28°C° 0 mm 4 mps 756 mmHg 51%
    19:00 +27°C° 0 mm 3 mps 756 mmHg 53%
    20:00 +27°C° 0 mm 2 mps 756 mmHg 54%
    21:00 +26°C° 0 mm 2 mps 756 mmHg 55%
    22:00 +26°C° 0 mm 2 mps 757 mmHg 55%
    23:00 +26°C° 0 mm 2 mps 757 mmHg 55%

    26 May, Sunday

    Time Temperature Precipitation Wind Pressure Humidity
    00:00 +25°C° 0 mm 2 mps 757 mmHg 58%
    01:00 +25°C° 0 mm 2 mps 757 mmHg 60%
    02:00 +24°C° 0 mm 2 mps 756 mmHg 62%
    03:00 +24°C° 0 mm 2 mps 756 mmHg 64%
    04:00 +24°C° 0 mm 1 mps 756 mmHg 65%
    05:00 +24°C° 0 mm 1 mps 756 mmHg 66%
    06:00 +25°C° 0 mm 2 mps 757 mmHg 61%
    07:00 +26°C° 0 mm 2 mps 757 mmHg 56%
    08:00 +27°C° 0 mm 2 mps 757 mmHg 51%
    09:00 +28°C° 0 mm 3 mps 757 mmHg 47%
    10:00 +30°C° 0 mm 4 mps 757 mmHg 42%
    11:00 +32°C° 0 mm 4 mps 756 mmHg 38%
    12:00 +32°C° 0 mm 5 mps 756 mmHg 38%
    13:00 +32°C° 0 mm 5 mps 756 mmHg 37%
    14:00 +32°C° 0 mm 6 mps 755 mmHg 36%
    15:00 +32°C° 0 mm 6 mps 755 mmHg 37%
    16:00 +30°C° 0 mm 5 mps 755 mmHg 39%
    17:00 +29°C° 0 mm 5 mps 755 mmHg 40%
    18:00 +28°C° 0 mm 4 mps 755 mmHg 46%
    19:00 +27°C° 0 mm 4 mps 756 mmHg 52%
    20:00 +26°C° 0 mm 3 mps 756 mmHg 58%
    21:00 +25°C° 0 mm 2 mps 756 mmHg 59%
    22:00 +25°C° 0 mm 2 mps 756 mmHg 61%
    23:00 +24°C° 0 mm 2 mps 756 mmHg 63%

    27 May, Monday

    Time Temperature Precipitation Wind Pressure Humidity
    00:00 +24°C° 0 mm 2 mps 756 mmHg 65%
    01:00 +24°C° 0 mm 2 mps 756 mmHg 66%
    02:00 +23°C° 0 mm 2 mps 756 mmHg 67%
    03:00 +23°C° 0 mm 1 mps 756 mmHg 67%
    04:00 +23°C° 0 mm 1 mps 756 mmHg 66%
    05:00 +23°C° 0 mm 1 mps 756 mmHg 66%
    06:00 +24°C° 0 mm 1 mps 756 mmHg 60%
    07:00 +25°C° 0 mm 1 mps 757 mmHg 54%
    08:00 +26°C° 0 mm 1 mps 757 mmHg 48%
    09:00 +28°C° 0 mm 2 mps 756 mmHg 43%
    10:00 +30°C° 0 mm 2 mps 756 mmHg 37%
    11:00 +31°C° 0 mm 3 mps 756 mmHg 31%
    12:00 +33°C° 0 mm 4 mps 755 mmHg 32%
    13:00 +33°C° 0 mm 5 mps 755 mmHg 33%
    14:00 +33°C° 0 mm 6 mps 755 mmHg 34%
    15:00 +32°C° 0 mm 6 mps 754 mmHg 37%
    16:00 +30°C° 0 mm 5 mps 754 mmHg 40%
    17:00 +29°C° 0 mm 5 mps 754 mmHg 42%
    18:00 +28°C° 0 mm 4 mps 755 mmHg 47%
    19:00 +27°C° 0 mm 3 mps 755 mmHg 52%
    20:00 +26°C° 0 mm 2 mps 755 mmHg 56%
    21:00 +26°C° 0 mm 2 mps 755 mmHg 57%
    22:00 +25°C° 0 mm 1 mps 755 mmHg 57%
    23:00 +25°C° 0 mm 1 mps 755 mmHg 57%
    Show more